Le nostre stazioni meteo in Italia

Pubblicità
Il mio iltempo24.it
Capo Carbonara, Italia (16564): Temperatura & dewpoint: 01.12.2019 11:00:00 - 07.12.2019 11:00:00 (CET)Capo Carbonara, Italia (16564): velocità del vento: 01.12.2019 11:00:00 - 07.12.2019 11:00:00 (CET)Capo Carbonara, Italia (16564): direzione del vento: 01.12.2019 11:00:00 - 07.12.2019 11:00:00 (CET)Capo Carbonara, Italia (16564): reduced air pressure: 01.12.2019 11:00:00 - 07.12.2019 11:00:00 (CET)Capo Carbonara, Italia (16564): visibility: 01.12.2019 11:00:00 - 07.12.2019 11:00:00 (CET)
Data & Tempo tt [°C] td [°C] ff [km/h] ff [kn] dd ppp [hPa] vv [km]
07.12.2019 11:00:00 - - - - - - -
07.12.2019 10:00:00 14,0 11,0 18 10 O - 10
07.12.2019 09:00:00 - - - - - - -
07.12.2019 08:00:00 13,0 10,0 29 16 O - 10
07.12.2019 07:00:00 14,0 10,9 26 14 O 1021,4 10
07.12.2019 06:00:00 14,0 11,0 9 5 OSO - 10
07.12.2019 05:00:00 14,0 10,0 21 11 O - 10
07.12.2019 04:00:00 13,8 10,2 21 11 O 1021,4 10
07.12.2019 03:00:00 14,0 11,0 24 13 O - 10
07.12.2019 02:00:00 14,0 10,0 22 12 O - 10
07.12.2019 01:00:00 14,4 10,2 24 13 O 1021,7 10
07.12.2019 00:00:00 15,0 11,0 24 13 O - 10
06.12.2019 23:00:00 15,0 12,0 22 12 OSO - 10
06.12.2019 22:00:00 14,6 12,0 21 11 OSO 1022,3 20
06.12.2019 21:00:00 15,0 12,0 18 10 OSO - 10
06.12.2019 20:00:00 15,0 12,0 18 10 OSO - 10
06.12.2019 19:00:00 14,8 12,1 15 8 SO 1021,9 20
06.12.2019 18:00:00 15,0 12,0 16 9 OSO - 10
06.12.2019 17:00:00 16,0 13,0 16 9 SO - 10
06.12.2019 16:00:00 16,8 12,7 21 11 OSO 1021,6 20
06.12.2019 15:00:00 17,0 13,0 18 10 SO - 10
06.12.2019 14:00:00 17,0 13,0 16 9 OSO - 10
06.12.2019 13:00:00 17,2 13,0 18 10 S 1022,5 20
06.12.2019 12:00:00 17,0 13,0 16 9 ESE - 10
06.12.2019 11:00:00 17,0 13,0 8 4 N - 10
06.12.2019 10:00:00 14,8 11,6 5 3 E 1023,4 20
06.12.2019 09:00:00 14,0 11,0 5 3 E - 10
06.12.2019 08:00:00 14,0 11,0 4 2 ENE - 10
06.12.2019 07:00:00 14,0 10,8 5 3 ENE 1022,2 10
06.12.2019 06:00:00 14,0 11,0 8 4 NE - 10
06.12.2019 05:00:00 14,0 11,0 5 3 ENE - 10
06.12.2019 04:00:00 14,4 12,1 9 5 ENE 1021,8 10
06.12.2019 03:00:00 15,0 12,0 0 0 N - 10
06.12.2019 02:00:00 15,0 12,0 0 0 N - 10
06.12.2019 01:00:00 15,0 12,5 5 3 SSO 1021,8 10
06.12.2019 00:00:00 15,0 12,0 8 4 SO - 10
05.12.2019 23:00:00 15,0 12,0 5 3 SO - 10
05.12.2019 22:00:00 15,0 12,5 9 5 SSO 1021,7 20
05.12.2019 21:00:00 15,0 12,0 11 6 SSO - 10
05.12.2019 20:00:00 15,0 12,0 9 5 SSO - 10
05.12.2019 19:00:00 15,2 12,7 15 8 SSO 1020,6 20
05.12.2019 18:00:00 17,0 14,0 18 10 SSO - 10
05.12.2019 17:00:00 17,0 14,0 13 7 SSO - 10
05.12.2019 16:00:00 18,6 13,9 13 7 SSO 1019,2 20
05.12.2019 15:00:00 19,0 14,0 11 6 SSO - 10
05.12.2019 14:00:00 19,0 14,0 15 8 SO - 10
05.12.2019 13:00:00 18,2 13,1 16 9 SO 1018,3 20
05.12.2019 12:00:00 18,0 13,0 18 10 SO - 10
05.12.2019 11:00:00 17,0 13,0 22 12 SSO - 10
05.12.2019 10:00:00 15,6 11,2 26 14 SO 1017,8 20
05.12.2019 09:00:00 15,0 11,0 18 10 SSO - 10
05.12.2019 08:00:00 15,0 11,0 24 13 O - 10
05.12.2019 07:00:00 14,8 10,9 31 17 SO 1015,1 10
05.12.2019 06:00:00 15,0 11,0 21 11 SO - 10
05.12.2019 05:00:00 14,0 11,0 21 11 SSO - 10
05.12.2019 04:00:00 14,4 10,6 21 11 S 1013,4 10
05.12.2019 03:00:00 14,0 11,0 13 7 S - 10
05.12.2019 02:00:00 14,0 10,0 22 12 S - 10
05.12.2019 01:00:00 14,0 10,2 21 11 SE 1012,4 10
05.12.2019 00:00:00 14,0 10,0 28 15 E - 10
04.12.2019 23:00:00 13,0 10,0 42 23 E - 10
04.12.2019 22:00:00 13,0 9,3 31 17 E 1011,3 10
04.12.2019 21:00:00 13,0 9,0 22 12 E - 10
04.12.2019 20:00:00 13,0 10,0 21 11 S - 10
04.12.2019 19:00:00 15,0 12,0 55 30 ESE - 10
04.12.2019 18:00:00 15,0 13,0 54 29 E - 10
04.12.2019 17:00:00 - - - - - - -
04.12.2019 16:00:00 16,0 12,6 44 24 E 1010,8 10
04.12.2019 15:00:00 16,0 12,0 44 24 ESE - 10
04.12.2019 14:00:00 16,0 12,0 50 27 ESE - 10
04.12.2019 13:00:00 16,0 12,7 50 27 E 1011,5 10
04.12.2019 12:00:00 16,0 13,0 61 33 E - 10
04.12.2019 11:00:00 16,0 13,0 65 35 E - 10
04.12.2019 10:00:00 16,0 12,6 57 31 E 1012,4 10
04.12.2019 09:00:00 16,0 13,0 54 29 E - 10
04.12.2019 08:00:00 16,0 13,0 61 33 E - 10
04.12.2019 07:00:00 15,8 13,0 59 32 ENE 1011,9 10
04.12.2019 06:00:00 16,0 13,0 61 33 ENE - 10
04.12.2019 05:00:00 16,0 13,0 54 29 ENE - 10
04.12.2019 04:00:00 15,8 12,7 52 28 ENE 1013,3 10
04.12.2019 03:00:00 16,0 13,0 61 33 ENE - 10
04.12.2019 02:00:00 16,0 13,0 55 30 ENE - 10
04.12.2019 01:00:00 15,8 12,6 55 30 ENE 1013,9 10
04.12.2019 00:00:00 16,0 13,0 55 30 ENE - 10
03.12.2019 23:00:00 16,0 13,0 61 33 ENE - 10
03.12.2019 22:00:00 15,6 12,6 63 34 ENE 1013,5 10
03.12.2019 21:00:00 16,0 13,0 61 33 ENE - 10
03.12.2019 20:00:00 16,0 13,0 57 31 ENE - 10
03.12.2019 19:00:00 16,0 13,5 54 29 ENE 1013,5 10
03.12.2019 18:00:00 16,0 13,0 42 23 ENE - 10
03.12.2019 17:00:00 16,0 13,0 48 26 NE - 10
03.12.2019 16:00:00 16,0 13,4 46 25 NE 1013,0 10
03.12.2019 15:00:00 16,0 13,0 46 25 NE - 10
03.12.2019 14:00:00 16,0 13,0 41 22 NE - 10
03.12.2019 13:00:00 16,6 13,7 39 21 NE 1013,5 10
03.12.2019 12:00:00 16,0 14,0 35 19 ENE - 10
03.12.2019 11:00:00 16,0 13,0 39 21 ENE - 10
03.12.2019 10:00:00 15,8 12,6 42 23 NE 1014,0 10
03.12.2019 09:00:00 15,0 13,0 44 24 NE - 10
03.12.2019 08:00:00 15,0 12,0 39 21 NE - 10
03.12.2019 07:00:00 15,0 12,5 42 23 NE 1013,2 10
03.12.2019 06:00:00 15,0 12,0 37 20 NE - 10
03.12.2019 05:00:00 15,0 12,0 31 17 NE - 10
03.12.2019 04:00:00 14,8 11,7 24 13 NE 1013,4 10
03.12.2019 03:00:00 15,0 12,0 21 11 NE - 10
03.12.2019 02:00:00 15,0 12,0 21 11 NE - 10
03.12.2019 01:00:00 14,8 12,0 15 8 ENE 1013,8 10
03.12.2019 00:00:00 15,0 11,0 15 8 E - 10
02.12.2019 23:00:00 15,0 12,0 5 3 NE - 10
02.12.2019 22:00:00 15,2 12,8 8 4 ESE 1013,9 10
02.12.2019 21:00:00 16,0 13,0 4 2 E - 10
02.12.2019 20:00:00 16,0 13,0 0 0 N - 10
02.12.2019 19:00:00 16,0 13,9 2 1 O 1013,0 10
02.12.2019 18:00:00 16,0 14,0 8 4 S - 10
02.12.2019 17:00:00 17,0 15,0 8 4 SO - 10
02.12.2019 16:00:00 18,6 15,1 11 6 ONO 1012,6 10
02.12.2019 15:00:00 19,0 15,0 11 6 E - 10
02.12.2019 14:00:00 19,0 15,0 11 6 ONO - 10
02.12.2019 13:00:00 19,0 15,1 15 8 SSE 1013,1 10
02.12.2019 12:00:00 17,0 15,0 16 9 S - 10
02.12.2019 11:00:00 18,0 14,0 16 9 S - 10
02.12.2019 10:00:00 16,4 13,4 18 10 SSO 1013,5 10
02.12.2019 09:00:00 14,0 11,0 26 14 S - 10
02.12.2019 08:00:00 16,0 13,0 24 13 S - 10
02.12.2019 07:00:00 15,6 13,1 22 12 S 1013,0 10
02.12.2019 06:00:00 16,0 13,0 29 16 S - 10
02.12.2019 05:00:00 16,0 13,0 29 16 S - 10
02.12.2019 04:00:00 15,8 13,1 31 17 S 1013,2 10
02.12.2019 03:00:00 16,0 13,0 39 21 S - 10
02.12.2019 02:00:00 16,0 13,0 41 22 S - 10
02.12.2019 01:00:00 16,0 13,0 37 20 S 1013,7 10
02.12.2019 00:00:00 16,0 13,0 41 22 S - 10
01.12.2019 23:00:00 16,0 14,0 41 22 S - 10
01.12.2019 22:00:00 16,2 13,7 42 23 S 1014,6 10
01.12.2019 21:00:00 16,0 13,0 29 16 SSE - 10
01.12.2019 20:00:00 16,0 14,0 22 12 SSE - 10
01.12.2019 19:00:00 16,0 14,0 13 7 ESE 1015,4 10
01.12.2019 18:00:00 16,0 14,0 16 9 ESE - 10
01.12.2019 17:00:00 16,0 13,0 18 10 ESE - 10
01.12.2019 16:00:00 17,0 13,5 18 10 ESE 1016,0 10
01.12.2019 15:00:00 18,0 14,0 22 12 ESE - 10
01.12.2019 14:00:00 18,0 15,0 28 15 NNE - 10
01.12.2019 13:00:00 18,4 13,7 28 15 ESE 1017,0 20
01.12.2019 12:00:00 18,0 13,0 29 16 ESE - 10
01.12.2019 11:00:00 17,0 13,0 34 18 SE - 10

tt = Temperatura
td = dewpoint
ff = velocità del vento
dd = direzione del vento
ppp = reduced air pressure
vv = visibility

Stazioni seguenti

WeatherPro
AMSI
MeteoEarth